TimeCST,TemperatureF,Dew PointF,Humidity,Sea Level PressureIn,VisibilityMPH,Wind Direction,Wind SpeedMPH,Gust SpeedMPH,PrecipitationIn,Events,Conditions,WindDirDegrees,DateUTC
12:00 AM,37.4,35.6,93,29.57,1.5,SSE,11.5,-,N/A,,Overcast,150,2013-01-29 06:00:00
12:09 AM,37.4,35.6,93,29.57,2.0,SSE,10.4,-,N/A,,Overcast,150,2013-01-29 06:09:00
12:20 AM,37.4,35.6,93,29.55,1.2,SSE,9.2,-,0.00,Rain,Light Rain,150,2013-01-29 06:20:00
12:45 AM,37.4,35.6,93,29.55,0.5,West,4.6,-,0.00,Fog,Fog,270,2013-01-29 06:45:00
12:53 AM,37.9,36.0,93,29.57,0.5,West,4.6,-,0.00,Fog-Thunderstorm,Fog,270,2013-01-29 06:53:00
1:02 AM,37.4,37.4,100,29.54,0.2,Calm,Calm,-,N/A,Fog-Thunderstorm,Fog,0,2013-01-29 07:02:00
1:16 AM,37.4,35.6,93,29.55,0.2,WNW,4.6,-,N/A,Fog,Fog,290,2013-01-29 07:16:00
1:53 AM,36.0,35.1,97,29.55,0.2,North,3.5,-,N/A,Fog,Fog,350,2013-01-29 07:53:00
2:53 AM,35.1,33.1,92,29.56,0.2,NW,9.2,-,N/A,Fog,Fog,310,2013-01-29 08:53:00
3:53 AM,35.1,34.0,96,29.55,0.2,WNW,5.8,-,0.02,Fog,Fog,300,2013-01-29 09:53:00
4:03 AM,35.6,33.8,93,29.53,0.5,WNW,4.6,-,N/A,Fog,Fog,300,2013-01-29 10:03:00
4:53 AM,36.0,35.1,97,29.55,0.5,West,9.2,-,N/A,Fog,Fog,280,2013-01-29 10:53:00
5:04 AM,37.4,35.6,93,29.54,1.8,West,11.5,-,N/A,,Overcast,270,2013-01-29 11:04:00
5:12 AM,37.4,35.6,93,29.53,2.5,West,11.5,-,N/A,,Overcast,280,2013-01-29 11:12:00
5:28 AM,35.6,35.6,100,29.54,1.2,WNW,13.8,-,N/A,,Overcast,290,2013-01-29 11:28:00
5:39 AM,35.6,33.8,93,29.55,0.8,WNW,11.5,-,N/A,,Overcast,290,2013-01-29 11:39:00
5:49 AM,33.8,33.8,100,29.56,1.8,WNW,13.8,-,N/A,,Overcast,300,2013-01-29 11:49:00
5:53 AM,34.0,33.1,96,29.58,2.0,WNW,12.7,-,N/A,,Overcast,300,2013-01-29 11:53:00
6:00 AM,33.8,32.0,93,29.56,1.2,NW,10.4,-,N/A,,Overcast,310,2013-01-29 12:00:00
6:18 AM,33.8,32.0,93,29.56,2.5,NW,9.2,-,N/A,,Overcast,310,2013-01-29 12:18:00
6:28 AM,33.8,32.0,93,29.56,4.0,NW,10.4,-,N/A,,Overcast,310,2013-01-29 12:28:00
6:53 AM,33.1,30.9,92,29.58,5.0,NW,9.2,-,N/A,,Overcast,320,2013-01-29 12:53:00
7:00 AM,33.8,30.2,87,29.57,6.0,NW,9.2,-,N/A,,Overcast,320,2013-01-29 13:00:00
7:53 AM,32.0,30.9,96,29.58,6.0,NNW,10.4,-,N/A,,Overcast,330,2013-01-29 13:53:00
8:53 AM,32.0,30.0,92,29.63,5.0,NW,12.7,-,N/A,,Overcast,310,2013-01-29 14:53:00
9:53 AM,33.1,30.0,89,29.67,6.0,NW,11.5,-,N/A,,Overcast,310,2013-01-29 15:53:00
10:53 AM,33.1,30.9,92,29.67,4.0,NW,13.8,-,N/A,,Overcast,310,2013-01-29 16:53:00
11:31 AM,30.2,28.4,93,29.65,2.0,NW,13.8,-,N/A,,Overcast,320,2013-01-29 17:31:00
11:38 AM,30.2,28.4,93,29.65,1.8,NW,15.0,-,N/A,,Overcast,320,2013-01-29 17:38:00
11:53 AM,30.9,28.9,92,29.67,1.2,NNW,15.0,-,N/A,,Overcast,330,2013-01-29 17:53:00
12:38 PM,32.0,28.4,87,29.63,3.0,NNW,12.7,-,N/A,,Overcast,330,2013-01-29 18:38:00
12:53 PM,32.0,28.9,88,29.62,4.0,NNW,16.1,-,N/A,,Overcast,340,2013-01-29 18:53:00
1:02 PM,32.0,28.4,87,29.61,4.0,North,12.7,-,N/A,,Overcast,350,2013-01-29 19:02:00
1:53 PM,33.1,30.0,89,29.62,7.0,North,15.0,-,N/A,,Overcast,350,2013-01-29 19:53:00
2:53 PM,33.1,30.0,89,29.61,6.0,NNW,17.3,-,N/A,,Overcast,340,2013-01-29 20:53:00
3:53 PM,33.1,30.0,89,29.63,8.0,North,11.5,-,N/A,,Overcast,360,2013-01-29 21:53:00
4:53 PM,33.1,28.9,85,29.62,9.0,North,13.8,-,N/A,,Overcast,350,2013-01-29 22:53:00
5:53 PM,32.0,30.0,92,29.64,7.0,North,12.7,-,N/A,,Overcast,350,2013-01-29 23:53:00
6:53 PM,32.0,28.9,88,29.63,7.0,North,15.0,-,N/A,,Overcast,350,2013-01-30 00:53:00
7:53 PM,33.1,28.0,82,29.66,9.0,North,15.0,-,N/A,,Overcast,350,2013-01-30 01:53:00
8:33 PM,32.0,28.4,87,29.59,7.0,North,17.3,-,N/A,,Overcast,350,2013-01-30 02:33:00
8:53 PM,32.0,28.0,85,29.63,7.0,NNW,16.1,25.3,N/A,,Overcast,340,2013-01-30 02:53:00
9:50 PM,32.0,28.4,87,29.64,6.0,North,18.4,24.2,N/A,,Overcast,350,2013-01-30 03:50:00
9:53 PM,32.0,27.0,82,29.68,7.0,North,17.3,-,N/A,,Overcast,350,2013-01-30 03:53:00
10:53 PM,30.9,26.1,82,29.66,8.0,North,17.3,-,N/A,,Overcast,350,2013-01-30 04:53:00
11:53 PM,30.0,25.0,82,29.62,10.0,North,25.3,32.2,N/A,,Overcast,350,2013-01-30 05:53:00